Location: Doux
(49.5045°N, 4.4321°E)
Time: 20:56:50
(UTC+00:00)

MOZ.5/SAFIR/RUBIN 5/SL-8 - Pass Details

Date: 23 May 2024
Orbit: 671 x 700 km, 98.3° (Epoch: 14 June)

Event Time Altitude Azimuth Distance (km) Brightness Sun altitude
Exits shadow 01:18:26 26° 178° (S) 1,372 4.8 -16.5°
Maximum altitude 01:21:07 70° 257° (WSW) 742 3.8 -16.3°
Drops below altitude 10° 01:25:50 10° 342° (NNW) 2,159 7.0 -15.9°
Sets 01:28:06 0° 344° (NNW) 3,076 7.9 -15.8°
